GW0416 Weather Reports


time (UTC)temp
C
wind
direction
speed
KPH
gust
KPH
rain 1hr
cm
rain 24hr
cm
rain mn
cm
humidity
%
barometer
mb
20260905050036 13 346 3.2 9.7 0.00 0.00 0.00 59 1017.1
20260905044535 13 18 8.0 11.3 0.00 0.00 0.00 59 1016.5
20260905043038 13 20 4.8 8.0 0.00 0.00 0.00 59 1016.5
20260905041539 14 39 0.0 4.8 0.00 0.00 0.00 56 1017.0
20260905040040 14 39 4.8 12.9 0.00 0.00 0.00 56 1016.5
20260905034537 15 37 9.7 17.7 0.00 0.00 0.00 54 1015.6
20260905033040 16 22 14.5 22.5 0.00 0.00 0.00 51 1015.4
20260905031538 16 5 16.1 22.5 0.00 0.00 0.00 49 1015.5
20260905030038 16 5 16.1 22.5 0.00 0.00 0.00 48 1015.5
20260905024538 16 15 14.5 19.3 0.00 0.00 0.00 48 1015.2
20260905023036 17 350 14.5 20.9 0.00 0.00 0.00 46 1014.8
20260905021537 17 318 14.5 30.6 0.00 0.00 0.00 45 1014.8
20260905020038 17 346 22.5 35.4 0.00 0.00 0.00 44 1013.9
20260905014536 17 9 24.1 32.2 0.00 0.00 0.00 44 1013.4
20260905013039 18 22 22.5 33.8 0.00 0.00 0.00 43 1013.6
20260905011535 18 13 27.4 40.2 0.00 0.00 0.00 41 1013.2
20260905010040 19 360 33.8 43.5 0.00 0.00 0.00 40 1013.0
20260905004538 19 14 35.4 45.1 0.00 0.00 0.00 39 1013.0
20260905003036 19 11 32.2 40.2 0.00 0.00 0.00 39 1013.2
20260905001538 19 5 30.6 38.6 0.00 0.00 0.00 40 1013.3
20260905000036 20 5 27.4 35.4 0.00 0.00 0.00 39 1013.3
20260904234536 20 344 22.5 33.8 0.00 0.00 0.00 39 1013.4
20260904233037 20 342 14.5 32.2 0.00 0.00 0.00 38 1013.6
20260904231550 21 309 19.3 27.4 0.00 0.00 0.00 37 1013.3
20260904230037 21 18 17.7 35.4 0.00 0.00 0.00 36 1013.3
20260904224534 21 328 22.5 38.6 0.00 0.00 0.00 36 1013.0
20260904223034 22 292 20.9 33.8 0.00 0.00 0.00 36 1012.9
20260904221542 22 292 19.3 32.2 0.00 0.00 0.00 36 1012.7
20260904220036 22 290 22.5 37.0 0.00 0.00 0.00 37 1012.5
20260904214534 22 293 25.7 38.6 0.00 0.00 0.00 36 1012.4
20260904213038 22 292 27.4 40.2 0.00 0.00 0.00 36 1012.1
20260904211534 22 290 24.1 33.8 0.00 0.00 0.00 37 1011.7
20260904210037 22 292 27.4 46.7 0.00 0.00 0.00 36 1011.6
20260904204537 22 306 27.4 38.6 0.00 0.00 0.00 35 1011.4
20260904203049 22 293 22.5 30.6 0.00 0.00 0.00 35 1011.4
20260904201535 21 281 24.1 37.0 0.00 0.00 0.00 36 1011.0
20260904200056 22 306 14.5 29.0 0.00 0.00 0.00 37 1011.0
20260904194534 21 271 16.1 24.1 0.00 0.00 0.00 39 1010.9
20260904193037 20 277 16.1 27.4 0.00 0.00 0.00 41 1010.6
20260904191537 20 284 14.5 24.1 0.00 0.00 0.00 42 1010.3
20260904190038 19 262 11.3 20.9 0.00 0.00 0.00 43 1010.3
20260904184537 19 274 16.1 27.4 0.00 0.00 0.00 43 1010.2
20260904183041 18 277 14.5 22.5 0.00 0.00 0.00 44 1010.1
20260904181540 18 234 14.5 27.4 0.00 0.00 0.00 44 1009.9
20260904180042 18 246 14.5 25.7 0.00 0.00 0.00 43 1010.0
20260904174536 18 228 14.5 19.3 0.00 0.00 0.00 44 1010.0
20260904173053 18 254 6.4 12.9 0.00 0.00 0.00 45 1009.6
20260904171538 17 224 11.3 17.7 0.00 0.00 0.00 45 1009.7
20260904170038 17 244 12.9 22.5 0.00 0.00 0.00 47 1009.6
20260904164534 16 250 14.5 25.7 0.00 0.00 0.00 47 1009.6
20260904163035 17 227 17.7 25.7 0.00 0.00 0.00 46 1009.4
20260904161535 17 302 8.0 16.1 0.00 0.00 0.00 53 1009.1
20260904160045 16 289 6.4 11.3 0.00 0.00 0.00 52 1009.0
20260904154535 16 36 6.4 9.7 0.00 0.00 0.00 51 1008.4
20260904153034 16 40 8.0 11.3 0.00 0.00 0.00 51 1008.1
20260904151538 16 53 11.3 16.1 0.00 0.00 0.00 50 1007.9
20260904150034 16 54 9.7 14.5 0.00 0.00 0.00 53 1007.8
20260904144538 15 67 9.7 16.1 0.00 0.00 0.00 53 1007.8
20260904143037 15 53 4.8 11.3 0.00 0.00 0.00 56 1007.6
20260904141539 13 26 8.0 19.3 0.00 0.00 0.00 59 1007.9
20260904140037 13 65 14.5 17.7 0.00 0.00 0.00 59 1007.8
20260904134559 12 68 4.8 14.5 0.00 0.00 0.00 66 1008.0
20260904133036 11 34 8.0 14.5 0.00 0.00 0.00 66 1008.2
20260904131537 11 28 11.3 16.1 0.00 0.00 0.00 66 1008.0
20260904130041 10 34 11.3 14.5 0.00 0.00 0.00 68 1007.7
20260904124537 10 34 14.5 19.3 0.00 0.00 0.00 68 1007.5
20260904123036 11 31 14.5 17.7 0.00 0.00 0.00 67 1007.5
20260904121542 11 33 14.5 17.7 0.00 0.00 0.00 67 1007.6
20260904120037 11 28 12.9 16.1 0.00 0.00 0.00 66 1007.6
20260904114537 11 33 9.7 16.1 0.00 0.00 0.00 63 1007.6
20260904113034 12 41 9.7 22.5 0.00 0.00 0.00 59 1007.6
20260904111538 12 55 17.7 24.1 0.00 0.00 0.00 59 1007.6
20260904110033 12 37 14.5 20.9 0.00 0.00 0.00 61 1007.8
20260904104534 12 15 14.5 20.9 0.00 0.00 0.00 61 1008.2
20260904103034 12 22 12.9 17.7 0.00 0.00 0.00 62 1008.2
20260904101536 11 26 12.9 20.9 0.00 0.00 0.00 63 1008.3
20260904100036 11 29 17.7 22.5 0.00 0.00 0.00 63 1008.2
20260904094549 12 25 9.7 17.7 0.00 0.00 0.00 61 1008.5
20260904093035 12 52 14.5 19.3 0.00 0.00 0.00 62 1008.4
20260904091538 12 38 14.5 20.9 0.00 0.00 0.00 61 1008.6
20260904090045 12 40 17.7 22.5 0.00 0.00 0.00 60 1008.8
20260904084534 12 44 14.5 22.5 0.00 0.00 0.00 61 1009.1
20260904083105 12 45 17.7 22.5 0.00 0.00 0.00 61 1009.1
20260904081536 12 59 12.9 19.3 0.00 0.00 0.00 61 1009.4
20260904080037 13 48 12.9 17.7 0.00 0.00 0.00 60 1009.4
20260904074533 13 51 14.5 19.3 0.00 0.00 0.00 58 1009.7
20260904073036 13 28 6.4 12.9 0.00 0.00 0.00 59 1009.8
20260904071547 14 5 12.9 20.9 0.00 0.00 0.00 58 1009.9
20260904070105 13 14 8.0 12.9 0.00 0.00 0.00 61 1009.9
20260904064538 14 15 11.3 14.5 0.00 0.00 0.00 56 1009.9
20260904063036 13 35 8.0 14.5 0.00 0.00 0.00 59 1009.9
20260904061536 13 31 8.0 14.5 0.00 0.00 0.00 59 1010.0
20260904060036 14 28 8.0 14.5 0.00 0.00 0.00 58 1009.9
20260904054544 14 9 11.3 16.1 0.00 0.00 0.00 56 1010.0
20260904053048 13 337 9.7 16.1 0.00 0.00 0.00 59 1010.1
20260904051540 13 330 8.0 12.9 0.00 0.00 0.00 60 1010.4